SCP
0 0 0 0 0 0 0 0 0 0 0 0 -0 0 0 0 0 -0 -0 -0 -0 -0 0 0 0 0 0 0 0 0 0 0 0 0 0 0 0 0 0 0 0 0 0
0 0 0 0 0 0 0 0 0 0 0 0 -0 -0 0 0 0 -0 -0 -0 -0 0 0 0 0 0 0 0 0 0 0 0 0 0 0 0 0 0 0 0 0 0 0
0 0 0 0 0 0 0 0 0 0 0 0 -0 -0 -0 0 0 0 -0 0 -0 0 0 0 0 0 0 0 0 0 0 0 0 0 0 0 0 0 0 0 0 0 0
0 0 0 0 0 0 0 0 0 0 0 0 -0 -0 -0 -0 -0 0 -0 0 -0 -0 0 0 0 0 0 0 0 0 0 0 0 0 0 0 0 0 0 0 0 0 0
0 0 0 0 0 0 0 0 0 0 0 0 0 0 -0 -0 -0 -0 0 0 0 -0 0 0 0 0 0 0 0 0 0 0 0 0 0 0 0 0 0 0 0 0 0
0 0 0 0 0 0 0 0 0 0 0 0 0 -0 -0 -0 -0 0 0 0 0 -0 0 0 0 0 0 0 0 0 0 0 0 0 0 0 0 0 0 0 0 0 0
0 0 0 0 0 0 0 0 0 0 0 0 0 0 -0 -0 0 0 0 0 0 0 -0 0 0 0 0 0 0 0 0 0 0 0 0 0 0 0 0 0 0 0 0
0 0 0 0 0 0 0 0 0 0 0 0 0 0 -0 -0 0 0 0 -0 0 0 0 0 0 0 0 0 0 0 0 0 0 0 0 0 0 0 0 0 0 0 0
0 0 0 0 0 0 0 0 0 0 0 0 0 0 0 -0 0 0 0 0 0 0 0 0 0 0 0 0 0 0 0 0 0 0 0 0 0 0 0 0 0 0 0
0 0 0 0 0 0 0 0 0 0 0 0 0 0 0 0 0 0 0 0 0 0 -0 0 0 0 0 0 0 0 0 0 0 0 0 0 0 0 0 0 0 0 0
0 0 0 0 0 0 0 0 0 0 0 0 0 0 0 0 0 0 0 0 0 0 0 0 0 0 0 0 0 0 0 0 0 0 0 0 0 0 0 0 0 0 0
0 0 0 0 0 0 -0 0 0 0 0 -0 0 0 0 0 0 0 0 0 0 0 0 0 0 0 0 0 0 0 0 0 0 0 0 0 0 0 0 0 0 0 0
0 0 0 0 0 0 -0 -0 0 0 -0 0 0 0 0 0 0 0 0 0 0 0 0 0 0 0 0 0 0 0 0 0 0 0 0 0 0 0 0 0 0 0 0
0 0 0 -0 -0 0 -0 -0 0 -0 0 -0 -0 0 0 0 0 0 0 0 0 0 0 0 0 0 0 0 0 0 0 0 0 0 0 0 0 0 0 0 0 0 0
0 0 0 -0 -0 -0 -0 -0 0 -0 -0 0 0 -0 0 0 0 0 0 0 0 0 0 0 0 0 0 0 0 0 0 0 0 0 0 0 0 0 0 0 0 0 0
0 0 -0 -0 -0 -0 -0 0 -0 -0 -0 -0 -0 -0 0 0 0 0 0 0 0 0 0 0 0 0 0 0 0 0 0 0 0 0 0 0 0 0 0 0 0 0 0
0 0 -0 -0 -0 -0 -0 0 -0 -0 -0 -0 -0 -0 -0 -0 0 0 0 0 0 0 0 0 0 0 0 0 0 0 0 0 0 0 0 0 0 0 0 0 0 0 0
0 -0 -0 -0 -0 -0 -0 0 0 -0 -0 -0 -0 -0 -0 -0 0 0 0 0 0 0 0 0 0 0 0 0 0 0 0 0 0 0 0 0 0 0 0 0 0 0 0
0 -0 -0 -0 -0 -0 -0 -0 0 0 -0 -0 -0 -0 -0 -0 0 0 0 0 0 0 0 0 0 0 0 0 0 0 0 0 0 0 0 0 0 0 0 0 0 0 0
0 -0 -0 -0 -0 -0 -0 -0 0 -0 -0 -0 -0 -0 0 0 0 0 0 0 0 0 0 0 0 0 0 0 0 0 0 0 0 0 0 0 0 0 0 0 0 0 0
0 0 -0 -0 -0 -0 -0 -0 0 0 -0 0 0 0 -0 0 0 0 0 0 0 0 0 0 0 0 0 0 0 0 0 0 0 0 0 0 0 0 0 0 0 0 0
0 -0 -0 -0 -0 -0 -0 -0 -0 0 -0 -0 0 0 -0 0 0 0 0 0 0 0 0 0 0 0 0 0 0 0 0 0 0 0 0 0 0 0 0 0 0 0 0
0 0 -0 -0 -0 -0 0 -0 -0 -0 -0 -0 0 0 0 0 0 0 0 0 0 0 0 0 0 0 0 0 0 0 0 0 0 0 0 0 0 0 0 0 0 0 0
0 0 -0 -0 -0 -0 -0 -0 0 0 -0 -0 -0 0 0 0 0 0 0 0 0 0 0 0 0 0 0 0 0 0 0 0 0 0 0 0 0 0 0 0 0 0 0
0 0 0 -0 -0 -0 -0 -0 -0 -0 -0 -0 -0 -0 0 0 0 0 0 0 0 0 0 0 0 0 0 0 0 0 0 0 0 0 0 0 0 0 0 0 0 0 0
0 0 0 0 -0 -0 0 0 0 0 0 -0 -0 -0 -0 -0 0 0 0 0 0 0 0 0 0 0 0 0 0 0 0 0 0 0 0 0 0 0 0 0 0 0 0
Wind_Speed_500mb
109 114 118 121 111 103 95 96 90 70 68 70 72 65 64 50 64 70 69 59 45 58 59 58 122 125 116 109 122 123 117 97 95 95 100 116 113 109 108 101 97 99 77
109 112 114 115 110 98 97 102 86 73 70 74 73 72 72 63 44 67 54 62 49 57 66 46 108 107 112 112 121 115 113 101 108 113 111 115 122 115 113 104 92 81 75
111 114 117 115 107 99 95 97 89 76 79 72 71 70 76 69 41 50 48 57 54 52 78 81 103 129 103 112 115 114 117 119 106 124 125 112 117 110 107 103 99 93 86
112 116 116 115 106 103 95 96 89 76 73 71 68 64 70 75 70 42 45 54 60 50 58 61 99 128 131 125 121 117 120 115 113 108 115 116 118 110 111 110 102 95 90
111 114 116 114 109 102 102 91 89 85 71 67 67 60 69 75 78 66 47 58 59 56 60 41 102 114 136 136 128 119 124 115 114 115 114 114 123 121 117 107 104 98 90
110 114 116 119 111 105 102 91 86 84 75 70 69 75 73 73 77 85 74 68 76 67 49 82 44 129 128 137 125 130 138 126 117 125 119 122 124 125 125 128 115 100 91
107 113 118 120 112 107 98 87 79 76 72 72 70 71 79 76 69 73 86 89 86 83 61 69 50 130 134 131 128 123 131 132 125 122 119 126 129 134 134 121 112 109 105
107 113 116 118 106 100 90 81 73 70 71 69 71 69 72 76 64 62 73 86 91 95 76 61 70 109 141 136 139 124 129 122 117 121 114 113 116 132 123 110 107 111 102
107 113 114 112 101 95 87 81 77 78 76 74 72 69 68 72 64 64 65 59 83 94 75 70 64 84 134 139 134 134 130 122 114 118 109 98 99 90 101 115 108 114 102
106 112 112 104 97 94 89 88 81 77 82 75 69 57 53 60 61 57 52 65 77 85 78 75 77 79 129 122 128 144 134 131 125 119 115 101 92 98 100 99 99 119 119
103 106 106 99 100 90 86 82 76 70 70 76 65 54 51 54 54 49 49 62 82 81 75 74 84 88 130 126 135 140 156 140 133 128 117 113 111 104 107 102 99 104 120
101 101 104 102 100 91 86 81 76 64 61 67 69 69 46 35 40 42 48 62 71 71 77 70 73 108 125 130 135 128 136 134 138 128 125 108 107 110 108 100 96 100 95
98 99 103 102 99 94 87 83 79 69 64 62 71 70 65 53 39 40 49 58 61 72 75 70 75 115 122 122 130 129 131 132 139 136 126 118 119 111 104 98 95 96 94
94 97 99 103 104 99 90 79 74 70 70 71 72 73 60 49 52 50 51 49 58 72 74 74 84 105 113 116 119 128 130 132 139 138 135 122 119 116 114 113 109 104 103
87 92 95 99 98 100 91 78 67 57 58 57 59 64 58 54 52 48 53 50 55 70 77 83 91 104 109 119 116 126 125 132 137 128 134 123 124 122 119 117 117 116 114
82 87 90 94 96 96 98 96 70 58 53 47 50 53 42 44 53 61 51 43 48 66 88 93 96 103 109 108 109 117 120 127 135 136 133 134 132 125 127 124 121 118 119
72 76 81 85 90 95 96 96 100 83 56 54 61 63 47 54 37 45 43 38 42 71 94 91 91 102 106 100 110 117 118 124 128 131 142 135 130 127 126 126 127 130 125
63 66 72 77 82 88 91 92 89 89 93 84 79 71 50 52 32 14 31 28 52 62 64 81 95 103 105 110 109 108 110 119 127 125 126 126 126 122 123 124 127 132 130
62 63 66 69 75 80 87 91 94 92 87 90 99 87 61 56 57 48 35 47 43 39 48 57 64 71 89 95 98 109 115 121 126 121 121 118 117 117 121 121 123 128 126
54 57 60 65 71 78 85 92 96 99 100 101 100 103 90 84 87 80 72 64 60 51 43 34 40 59 71 77 82 98 111 118 118 118 117 110 113 117 115 114 122 124 125
51 54 58 62 67 73 79 85 89 95 98 100 99 87 88 106 101 96 89 81 75 67 59 49 33 32 47 65 75 79 88 99 106 106 104 106 106 105 109 113 112 114 118
45 50 54 60 64 68 71 76 82 87 92 94 95 98 98 105 106 105 99 92 84 79 72 66 61 49 34 30 46 59 67 72 75 82 88 90 91 94 97 100 102 106 110
39 43 47 52 56 61 66 71 75 79 83 86 90 93 96 97 96 96 95 94 88 82 78 76 69 65 57 48 34 31 40 52 60 67 71 78 85 89 89 90 93 93 98
35 38 42 46 51 56 61 65 68 71 73 78 82 85 86 87 87 85 83 83 84 81 77 80 77 68 63 57 49 39 29 18 22 35 44 53 62 69 73 78 81 85 87
30 34 37 42 46 50 54 58 61 65 68 70 72 73 74 76 77 77 76 76 74 74 75 74 75 73 68 64 59 47 37 26 17 14 19 24 30 38 46 55 61 61 62
28 31 34 36 40 43 47 52 56 59 62 64 65 65 64 64 64 65 67 69 68 68 69 66 65 68 65 66 63 60 54 42 31 26 20 19 21 25 26 29 31 33 35
Wind_Direction_500mb
330 328 327 327 324 317 312 315 308 297 285 280 275 269 269 283 272 274 284 279 271 270 281 246 194 193 189 190 198 203 196 193 184 186 195 184 185 187 189 191 193 191 198
330 327 327 327 327 318 314 316 310 299 291 281 279 267 259 270 281 266 279 274 272 260 259 252 198 198 191 189 197 202 194 187 186 188 192 185 186 188 191 191 192 199 203
329 328 329 330 330 319 312 313 310 301 294 284 277 271 258 254 262 275 276 274 274 261 255 264 211 205 191 186 192 189 191 188 192 194 188 188 185 189 189 193 195 197 201
330 329 332 333 328 320 315 311 309 304 297 290 279 274 262 255 253 255 271 270 270 264 246 263 203 202 195 191 189 188 190 187 193 200 193 191 193 188 193 194 194 198 202
330 330 335 334 330 323 318 312 307 304 297 290 280 275 272 263 253 248 250 259 265 269 242 263 204 209 202 198 191 190 194 191 193 199 197 192 192 192 194 198 201 197 200
332 333 336 336 330 324 322 318 312 308 301 292 278 268 267 266 257 247 246 257 264 272 257 237 242 211 205 198 197 203 202 197 197 199 197 202 202 200 200 201 200 195 195
335 335 338 336 332 330 323 318 315 310 306 299 290 279 266 268 267 253 241 244 255 262 264 237 269 205 203 202 196 198 207 207 210 207 205 204 199 202 204 201 211 208 208
337 337 338 335 331 331 326 323 320 315 309 304 297 285 272 261 264 261 248 243 250 257 260 249 241 206 206 205 196 197 204 207 212 212 212 208 211 207 210 212 216 212 213
340 337 339 336 336 335 332 330 327 321 314 306 300 293 275 265 263 261 240 232 247 251 254 251 228 214 206 203 201 199 201 204 210 210 216 212 210 208 211 210 209 208 203
340 338 340 337 342 339 336 327 324 320 311 309 303 295 282 268 261 249 237 225 242 247 249 245 224 224 212 216 209 201 200 201 202 203 208 211 210 213 221 223 224 212 209
340 339 341 344 348 342 335 335 331 328 325 314 306 299 289 272 260 236 224 226 240 246 252 239 225 215 208 213 216 212 211 207 207 210 212 212 210 217 218 221 227 226 216
341 341 346 351 350 345 343 341 338 337 339 335 333 324 308 280 248 245 238 233 239 244 241 230 224 212 213 216 217 217 213 212 207 204 207 208 209 210 215 219 222 222 227
343 346 352 353 352 352 346 345 343 344 340 340 336 340 306 307 285 264 252 244 241 237 235 221 224 208 212 220 215 217 212 213 204 202 204 212 213 214 215 216 218 219 220
346 352 357 355 356 355 352 351 345 345 340 341 337 334 322 328 293 295 283 267 245 233 235 222 221 209 213 216 216 214 214 212 208 203 207 213 213 212 212 213 214 213 216
352 356 0 360 0 357 356 352 346 342 339 333 338 333 322 319 292 272 271 267 249 229 217 215 214 206 205 205 205 203 206 207 209 207 208 211 212 212 212 213 214 216 215
356 359 5 5 5 4 1 356 2 349 346 345 346 337 320 318 286 278 261 248 240 222 208 206 206 202 202 199 196 196 199 202 208 206 209 212 213 211 212 213 214 218 218
1 4 7 11 12 12 10 8 358 9 13 7 1 353 354 346 291 269 245 228 219 211 202 203 203 205 206 213 202 198 197 204 206 205 211 214 212 211 213 215 218 220 220
7 10 12 17 18 20 19 20 16 5 7 15 22 4 8 9 4 259 220 189 184 182 187 194 201 208 205 203 203 199 199 204 209 211 210 215 214 215 218 219 219 220 219
12 14 16 21 26 27 27 27 27 22 17 19 23 23 35 44 48 85 130 119 115 133 162 184 192 199 209 214 217 215 209 206 210 211 214 216 219 220 220 223 224 225 225
15 19 21 23 27 29 33 31 31 32 30 31 30 17 33 49 56 59 66 73 78 85 95 125 165 190 201 206 208 211 213 213 212 213 215 216 219 219 220 226 225 224 224
14 18 23 26 30 33 33 36 35 34 36 37 36 32 35 49 51 57 59 62 66 70 74 78 91 137 175 191 196 196 201 206 210 211 212 215 216 217 220 223 227 230 229
14 19 23 27 29 33 34 37 37 38 37 36 39 43 47 51 52 54 57 60 63 68 70 72 70 78 97 147 180 193 199 205 209 212 216 220 223 223 226 227 230 232 229
16 20 24 27 29 32 35 35 36 37 39 37 37 38 42 46 48 51 53 54 57 61 65 68 68 72 72 79 101 145 180 195 204 210 214 219 220 222 225 226 227 228 229
17 21 25 27 28 30 32 36 35 36 37 38 37 37 39 41 44 48 49 54 56 58 61 65 64 63 68 69 73 80 94 120 179 198 208 218 222 224 225 226 229 230 232
18 21 25 26 28 28 29 31 34 35 34 34 37 40 40 39 39 42 46 49 51 53 56 60 62 60 61 66 68 71 75 85 102 136 164 181 195 205 213 217 217 218 222
19 21 23 25 26 28 28 28 28 29 32 33 32 34 38 41 42 43 43 43 45 49 51 52 61 62 62 61 63 68 69 74 82 96 115 138 157 169 178 184 188 192 198
Wind_Speed_850mb
109 114 118 121 111 103 95 96 90 70 68 70 72 65 64 50 64 70 69 59 45 58 59 58 122 125 116 109 122 123 117 97 95 95 100 116 113 109 108 101 97 99 77
109 112 114 115 110 98 97 102 86 73 70 74 73 72 72 63 44 67 54 62 49 57 66 46 108 107 112 112 121 115 113 101 108 113 111 115 122 115 113 104 92 81 75
111 114 117 115 107 99 95 97 89 76 79 72 71 70 76 69 41 50 48 57 54 52 78 81 103 129 103 112 115 114 117 119 106 124 125 112 117 110 107 103 99 93 86
112 116 116 115 106 103 95 96 89 76 73 71 68 64 70 75 70 42 45 54 60 50 58 61 99 128 131 125 121 117 120 115 113 108 115 116 118 110 111 110 102 95 90
111 114 116 114 109 102 102 91 89 85 71 67 67 60 69 75 78 66 47 58 59 56 60 41 102 114 136 136 128 119 124 115 114 115 114 114 123 121 117 107 104 98 90
110 114 116 119 111 105 102 91 86 84 75 70 69 75 73 73 77 85 74 68 76 67 49 82 44 129 128 137 125 130 138 126 117 125 119 122 124 125 125 128 115 100 91
107 113 118 120 112 107 98 87 79 76 72 72 70 71 79 76 69 73 86 89 86 83 61 69 50 130 134 131 128 123 131 132 125 122 119 126 129 134 134 121 112 109 105
107 113 116 118 106 100 90 81 73 70 71 69 71 69 72 76 64 62 73 86 91 95 76 61 70 109 141 136 139 124 129 122 117 121 114 113 116 132 123 110 107 111 102
107 113 114 112 101 95 87 81 77 78 76 74 72 69 68 72 64 64 65 59 83 94 75 70 64 84 134 139 134 134 130 122 114 118 109 98 99 90 101 115 108 114 102
106 112 112 104 97 94 89 88 81 77 82 75 69 57 53 60 61 57 52 65 77 85 78 75 77 79 129 122 128 144 134 131 125 119 115 101 92 98 100 99 99 119 119
103 106 106 99 100 90 86 82 76 70 70 76 65 54 51 54 54 49 49 62 82 81 75 74 84 88 130 126 135 140 156 140 133 128 117 113 111 104 107 102 99 104 120
101 101 104 102 100 91 86 81 76 64 61 67 69 69 46 35 40 42 48 62 71 71 77 70 73 108 125 130 135 128 136 134 138 128 125 108 107 110 108 100 96 100 95
98 99 103 102 99 94 87 83 79 69 64 62 71 70 65 53 39 40 49 58 61 72 75 70 75 115 122 122 130 129 131 132 139 136 126 118 119 111 104 98 95 96 94
94 97 99 103 104 99 90 79 74 70 70 71 72 73 60 49 52 50 51 49 58 72 74 74 84 105 113 116 119 128 130 132 139 138 135 122 119 116 114 113 109 104 103
87 92 95 99 98 100 91 78 67 57 58 57 59 64 58 54 52 48 53 50 55 70 77 83 91 104 109 119 116 126 125 132 137 128 134 123 124 122 119 117 117 116 114
82 87 90 94 96 96 98 96 70 58 53 47 50 53 42 44 53 61 51 43 48 66 88 93 96 103 109 108 109 117 120 127 135 136 133 134 132 125 127 124 121 118 119
72 76 81 85 90 95 96 96 100 83 56 54 61 63 47 54 37 45 43 38 42 71 94 91 91 102 106 100 110 117 118 124 128 131 142 135 130 127 126 126 127 130 125
63 66 72 77 82 88 91 92 89 89 93 84 79 71 50 52 32 14 31 28 52 62 64 81 95 103 105 110 109 108 110 119 127 125 126 126 126 122 123 124 127 132 130
62 63 66 69 75 80 87 91 94 92 87 90 99 87 61 56 57 48 35 47 43 39 48 57 64 71 89 95 98 109 115 121 126 121 121 118 117 117 121 121 123 128 126
54 57 60 65 71 78 85 92 96 99 100 101 100 103 90 84 87 80 72 64 60 51 43 34 40 59 71 77 82 98 111 118 118 118 117 110 113 117 115 114 122 124 125
51 54 58 62 67 73 79 85 89 95 98 100 99 87 88 106 101 96 89 81 75 67 59 49 33 32 47 65 75 79 88 99 106 106 104 106 106 105 109 113 112 114 118
45 50 54 60 64 68 71 76 82 87 92 94 95 98 98 105 106 105 99 92 84 79 72 66 61 49 34 30 46 59 67 72 75 82 88 90 91 94 97 100 102 106 110
39 43 47 52 56 61 66 71 75 79 83 86 90 93 96 97 96 96 95 94 88 82 78 76 69 65 57 48 34 31 40 52 60 67 71 78 85 89 89 90 93 93 98
35 38 42 46 51 56 61 65 68 71 73 78 82 85 86 87 87 85 83 83 84 81 77 80 77 68 63 57 49 39 29 18 22 35 44 53 62 69 73 78 81 85 87
30 34 37 42 46 50 54 58 61 65 68 70 72 73 74 76 77 77 76 76 74 74 75 74 75 73 68 64 59 47 37 26 17 14 19 24 30 38 46 55 61 61 62
28 31 34 36 40 43 47 52 56 59 62 64 65 65 64 64 64 65 67 69 68 68 69 66 65 68 65 66 63 60 54 42 31 26 20 19 21 25 26 29 31 33 35
Wind_Direction_850mb
330 328 327 327 324 317 312 315 308 297 285 280 275 269 269 283 272 274 284 279 271 270 281 246 194 193 189 190 198 203 196 193 184 186 195 184 185 187 189 191 193 191 198
330 327 327 327 327 318 314 316 310 299 291 281 279 267 259 270 281 266 279 274 272 260 259 252 198 198 191 189 197 202 194 187 186 188 192 185 186 188 191 191 192 199 203
329 328 329 330 330 319 312 313 310 301 294 284 277 271 258 254 262 275 276 274 274 261 255 264 211 205 191 186 192 189 191 188 192 194 188 188 185 189 189 193 195 197 201
330 329 332 333 328 320 315 311 309 304 297 290 279 274 262 255 253 255 271 270 270 264 246 263 203 202 195 191 189 188 190 187 193 200 193 191 193 188 193 194 194 198 202
330 330 335 334 330 323 318 312 307 304 297 290 280 275 272 263 253 248 250 259 265 269 242 263 204 209 202 198 191 190 194 191 193 199 197 192 192 192 194 198 201 197 200
332 333 336 336 330 324 322 318 312 308 301 292 278 268 267 266 257 247 246 257 264 272 257 237 242 211 205 198 197 203 202 197 197 199 197 202 202 200 200 201 200 195 195
335 335 338 336 332 330 323 318 315 310 306 299 290 279 266 268 267 253 241 244 255 262 264 237 269 205 203 202 196 198 207 207 210 207 205 204 199 202 204 201 211 208 208
337 337 338 335 331 331 326 323 320 315 309 304 297 285 272 261 264 261 248 243 250 257 260 249 241 206 206 205 196 197 204 207 212 212 212 208 211 207 210 212 216 212 213
340 337 339 336 336 335 332 330 327 321 314 306 300 293 275 265 263 261 240 232 247 251 254 251 228 214 206 203 201 199 201 204 210 210 216 212 210 208 211 210 209 208 203
340 338 340 337 342 339 336 327 324 320 311 309 303 295 282 268 261 249 237 225 242 247 249 245 224 224 212 216 209 201 200 201 202 203 208 211 210 213 221 223 224 212 209
340 339 341 344 348 342 335 335 331 328 325 314 306 299 289 272 260 236 224 226 240 246 252 239 225 215 208 213 216 212 211 207 207 210 212 212 210 217 218 221 227 226 216
341 341 346 351 350 345 343 341 338 337 339 335 333 324 308 280 248 245 238 233 239 244 241 230 224 212 213 216 217 217 213 212 207 204 207 208 209 210 215 219 222 222 227
343 346 352 353 352 352 346 345 343 344 340 340 336 340 306 307 285 264 252 244 241 237 235 221 224 208 212 220 215 217 212 213 204 202 204 212 213 214 215 216 218 219 220
346 352 357 355 356 355 352 351 345 345 340 341 337 334 322 328 293 295 283 267 245 233 235 222 221 209 213 216 216 214 214 212 208 203 207 213 213 212 212 213 214 213 216
352 356 0 360 0 357 356 352 346 342 339 333 338 333 322 319 292 272 271 267 249 229 217 215 214 206 205 205 205 203 206 207 209 207 208 211 212 212 212 213 214 216 215
356 359 5 5 5 4 1 356 2 349 346 345 346 337 320 318 286 278 261 248 240 222 208 206 206 202 202 199 196 196 199 202 208 206 209 212 213 211 212 213 214 218 218
1 4 7 11 12 12 10 8 358 9 13 7 1 353 354 346 291 269 245 228 219 211 202 203 203 205 206 213 202 198 197 204 206 205 211 214 212 211 213 215 218 220 220
7 10 12 17 18 20 19 20 16 5 7 15 22 4 8 9 4 259 220 189 184 182 187 194 201 208 205 203 203 199 199 204 209 211 210 215 214 215 218 219 219 220 219
12 14 16 21 26 27 27 27 27 22 17 19 23 23 35 44 48 85 130 119 115 133 162 184 192 199 209 214 217 215 209 206 210 211 214 216 219 220 220 223 224 225 225
15 19 21 23 27 29 33 31 31 32 30 31 30 17 33 49 56 59 66 73 78 85 95 125 165 190 201 206 208 211 213 213 212 213 215 216 219 219 220 226 225 224 224
14 18 23 26 30 33 33 36 35 34 36 37 36 32 35 49 51 57 59 62 66 70 74 78 91 137 175 191 196 196 201 206 210 211 212 215 216 217 220 223 227 230 229
14 19 23 27 29 33 34 37 37 38 37 36 39 43 47 51 52 54 57 60 63 68 70 72 70 78 97 147 180 193 199 205 209 212 216 220 223 223 226 227 230 232 229
16 20 24 27 29 32 35 35 36 37 39 37 37 38 42 46 48 51 53 54 57 61 65 68 68 72 72 79 101 145 180 195 204 210 214 219 220 222 225 226 227 228 229
17 21 25 27 28 30 32 36 35 36 37 38 37 37 39 41 44 48 49 54 56 58 61 65 64 63 68 69 73 80 94 120 179 198 208 218 222 224 225 226 229 230 232
18 21 25 26 28 28 29 31 34 35 34 34 37 40 40 39 39 42 46 49 51 53 56 60 62 60 61 66 68 71 75 85 102 136 164 181 195 205 213 217 217 218 222
19 21 23 25 26 28 28 28 28 29 32 33 32 34 38 41 42 43 43 43 45 49 51 52 61 62 62 61 63 68 69 74 82 96 115 138 157 169 178 184 188 192 198